Year,Month,Day,Hour,Minute,Value (Times are PST for temperature in C)
2015,07,20,00,00,20.60
2015,07,20,00,01,20.50
2015,07,20,00,02,20.50
2015,07,20,00,03,20.50
2015,07,20,00,04,20.50
2015,07,20,00,05,20.50
2015,07,20,00,06,20.40
2015,07,20,00,07,20.40
2015,07,20,00,08,20.30
2015,07,20,00,09,20.30
2015,07,20,00,10,20.30
2015,07,20,00,11,20.30
2015,07,20,00,12,20.30
2015,07,20,00,13,20.20
2015,07,20,00,14,20.20
2015,07,20,00,15,20.20
2015,07,20,00,16,20.20
2015,07,20,00,17,20.20
2015,07,20,00,18,20.10
2015,07,20,00,19,20.10
2015,07,20,00,20,20.10
2015,07,20,00,21,20.10
2015,07,20,00,22,20.10
2015,07,20,00,23,20.10
2015,07,20,00,24,20.10
2015,07,20,00,25,20.10
2015,07,20,00,26,20.10
2015,07,20,00,27,20.10
2015,07,20,00,28,20.00
2015,07,20,00,29,20.00
2015,07,20,00,30,20.00
2015,07,20,00,31,20.00
2015,07,20,00,32,20.00
2015,07,20,00,33,20.10
2015,07,20,00,34,20.10
2015,07,20,00,35,20.10
2015,07,20,00,36,20.10
2015,07,20,00,37,20.10
2015,07,20,00,38,20.10
2015,07,20,00,39,20.10
2015,07,20,00,40,20.10
2015,07,20,00,41,20.10
2015,07,20,00,42,20.10
2015,07,20,00,43,20.10
2015,07,20,00,44,20.10
2015,07,20,00,45,20.10
2015,07,20,00,46,20.00
2015,07,20,00,47,20.00
2015,07,20,00,48,20.00
2015,07,20,00,49,20.00
2015,07,20,00,50,20.00
2015,07,20,00,51,20.00
2015,07,20,00,52,19.90
2015,07,20,00,53,19.90
2015,07,20,00,54,19.90
2015,07,20,00,55,19.90
2015,07,20,00,56,19.90
2015,07,20,00,57,19.80
2015,07,20,00,58,19.80
2015,07,20,00,59,19.80
2015,07,20,01,00,19.80
2015,07,20,01,01,19.80
2015,07,20,01,02,19.70
2015,07,20,01,03,19.70
2015,07,20,01,04,19.70
2015,07,20,01,05,19.70
2015,07,20,01,06,19.70
2015,07,20,01,07,19.60
2015,07,20,01,08,19.60
2015,07,20,01,09,19.60
2015,07,20,01,10,19.60
2015,07,20,01,11,19.60
2015,07,20,01,12,19.50
2015,07,20,01,13,19.50
2015,07,20,01,14,19.50
2015,07,20,01,15,19.40
2015,07,20,01,16,19.40
2015,07,20,01,17,19.40
2015,07,20,01,18,19.40
2015,07,20,01,19,19.40
2015,07,20,01,20,19.40
2015,07,20,01,21,19.30
2015,07,20,01,22,19.30
2015,07,20,01,23,19.30
2015,07,20,01,24,19.30
2015,07,20,01,25,19.30
2015,07,20,01,26,19.30
2015,07,20,01,27,19.30
2015,07,20,01,28,19.30
2015,07,20,01,29,19.30
2015,07,20,01,30,19.20
2015,07,20,01,31,19.20
2015,07,20,01,32,19.20
2015,07,20,01,33,19.20
2015,07,20,01,34,19.20
2015,07,20,01,35,19.20
2015,07,20,01,36,19.10
2015,07,20,01,37,19.10
2015,07,20,01,38,19.10
2015,07,20,01,39,19.10
2015,07,20,01,40,19.10
2015,07,20,01,41,19.00
2015,07,20,01,42,19.00
2015,07,20,01,43,19.00
2015,07,20,01,44,19.00
2015,07,20,01,45,18.90
2015,07,20,01,46,18.90
2015,07,20,01,47,18.90
2015,07,20,01,48,18.90
2015,07,20,01,49,18.90
2015,07,20,01,50,18.80
2015,07,20,01,51,18.80
2015,07,20,01,52,18.80
2015,07,20,01,53,18.80
2015,07,20,01,54,18.80
2015,07,20,01,55,18.80
2015,07,20,01,56,18.80
2015,07,20,01,57,18.70
2015,07,20,01,58,18.70
2015,07,20,01,59,18.70
2015,07,20,02,00,18.70
2015,07,20,02,01,18.60
2015,07,20,02,02,18.60
2015,07,20,02,03,18.60
2015,07,20,02,04,18.60
2015,07,20,02,05,18.60
2015,07,20,02,06,18.60
2015,07,20,02,07,18.60
2015,07,20,02,08,18.60
2015,07,20,02,09,18.50
2015,07,20,02,10,18.50
2015,07,20,02,11,18.50
2015,07,20,02,12,18.50
2015,07,20,02,13,18.50
2015,07,20,02,14,18.50
2015,07,20,02,15,18.50
2015,07,20,02,16,18.50
2015,07,20,02,17,18.50
2015,07,20,02,18,18.50
2015,07,20,02,19,18.50
2015,07,20,02,20,18.50
2015,07,20,02,21,18.40
2015,07,20,02,22,18.40
2015,07,20,02,23,18.40
2015,07,20,02,24,18.40
2015,07,20,02,25,18.40
2015,07,20,02,26,18.40
2015,07,20,02,27,18.40
2015,07,20,02,28,18.40
2015,07,20,02,29,18.40
2015,07,20,02,30,18.40
2015,07,20,02,31,18.30
2015,07,20,02,32,18.30
2015,07,20,02,33,18.30
2015,07,20,02,34,18.30
2015,07,20,02,35,18.30
2015,07,20,02,36,18.30
2015,07,20,02,37,18.20
2015,07,20,02,38,18.20
2015,07,20,02,39,18.20
2015,07,20,02,40,18.20
2015,07,20,02,41,18.20
2015,07,20,02,42,18.20
2015,07,20,02,43,18.20
2015,07,20,02,44,18.20
2015,07,20,02,45,18.20
2015,07,20,02,46,18.20
2015,07,20,02,47,18.20
2015,07,20,02,48,18.10
2015,07,20,02,49,18.10
2015,07,20,02,50,18.10
2015,07,20,02,51,18.10
2015,07,20,02,52,18.10
2015,07,20,02,53,18.10
2015,07,20,02,54,18.10
2015,07,20,02,55,18.00
2015,07,20,02,56,18.00
2015,07,20,02,57,18.00
2015,07,20,02,58,17.90
2015,07,20,02,59,17.90
2015,07,20,03,00,17.90
2015,07,20,03,01,17.90
2015,07,20,03,02,17.80
2015,07,20,03,03,17.80
2015,07,20,03,04,17.80
2015,07,20,03,05,17.80
2015,07,20,03,06,17.80
2015,07,20,03,07,17.80
2015,07,20,03,08,17.80
2015,07,20,03,09,17.80
2015,07,20,03,10,17.80
2015,07,20,03,11,17.80
2015,07,20,03,12,17.70
2015,07,20,03,13,17.70
2015,07,20,03,14,17.70
2015,07,20,03,15,17.70
2015,07,20,03,16,17.70
2015,07,20,03,17,17.70
2015,07,20,03,18,17.70
2015,07,20,03,19,17.70
2015,07,20,03,20,17.70
2015,07,20,03,21,17.70
2015,07,20,03,22,17.70
2015,07,20,03,23,17.70
2015,07,20,03,24,17.70
2015,07,20,03,25,17.70
2015,07,20,03,26,17.70
2015,07,20,03,27,17.70
2015,07,20,03,28,17.70
2015,07,20,03,29,17.80
2015,07,20,03,30,17.70
2015,07,20,03,31,17.70
2015,07,20,03,32,17.70
2015,07,20,03,33,17.60
2015,07,20,03,34,17.60
2015,07,20,03,35,17.60
2015,07,20,03,36,17.50
2015,07,20,03,37,17.50
2015,07,20,03,38,17.50
2015,07,20,03,39,17.40
2015,07,20,03,40,17.40
2015,07,20,03,41,17.30
2015,07,20,03,42,17.30
2015,07,20,03,43,17.20
2015,07,20,03,44,17.10
2015,07,20,03,45,17.10
2015,07,20,03,46,17.00
2015,07,20,03,47,17.00
2015,07,20,03,48,16.90
2015,07,20,03,49,16.80
2015,07,20,03,50,16.80
2015,07,20,03,51,16.80
2015,07,20,03,52,16.70
2015,07,20,03,53,16.70
2015,07,20,03,54,16.70
2015,07,20,03,55,16.70
2015,07,20,03,56,16.70
2015,07,20,03,57,16.70
2015,07,20,03,58,16.60
2015,07,20,03,59,16.60
2015,07,20,04,00,16.50
2015,07,20,04,01,16.40
2015,07,20,04,02,16.30
2015,07,20,04,03,16.30
2015,07,20,04,04,16.20
2015,07,20,04,05,16.20
2015,07,20,04,06,16.20
2015,07,20,04,07,16.10
2015,07,20,04,08,16.10
2015,07,20,04,09,16.10
2015,07,20,04,10,16.10
2015,07,20,04,11,16.10
2015,07,20,04,12,16.10
2015,07,20,04,13,16.10
2015,07,20,04,14,16.10
2015,07,20,04,15,16.00
2015,07,20,04,16,16.00
2015,07,20,04,17,16.00
2015,07,20,04,18,16.00
2015,07,20,04,19,16.00
2015,07,20,04,20,15.90
2015,07,20,04,21,15.90
2015,07,20,04,22,15.90
2015,07,20,04,23,15.90
2015,07,20,04,24,15.90
2015,07,20,04,25,15.90
2015,07,20,04,26,15.90
2015,07,20,04,27,16.00
2015,07,20,04,28,16.00
2015,07,20,04,29,16.00
2015,07,20,04,30,16.00
2015,07,20,04,31,16.00
2015,07,20,04,32,16.00
2015,07,20,04,33,16.00
2015,07,20,04,34,15.90
2015,07,20,04,35,15.80
2015,07,20,04,36,15.80
2015,07,20,04,37,15.70
2015,07,20,04,38,15.70
2015,07,20,04,39,15.60
2015,07,20,04,40,15.60
2015,07,20,04,41,15.60
2015,07,20,04,42,15.60
2015,07,20,04,43,15.50
2015,07,20,04,44,15.50
2015,07,20,04,45,15.50
2015,07,20,04,46,15.50
2015,07,20,04,47,15.50
2015,07,20,04,48,15.50
2015,07,20,04,49,15.40
2015,07,20,04,50,15.40
2015,07,20,04,51,15.40
2015,07,20,04,52,15.40
2015,07,20,04,53,15.40
2015,07,20,04,54,15.40
2015,07,20,04,55,15.40
2015,07,20,04,56,15.40
2015,07,20,04,57,15.40
2015,07,20,04,58,15.40
2015,07,20,04,59,15.40
2015,07,20,05,00,15.40
2015,07,20,05,01,15.40
2015,07,20,05,02,15.40
2015,07,20,05,03,15.50
2015,07,20,05,04,15.50
2015,07,20,05,05,15.50
2015,07,20,05,06,15.50
2015,07,20,05,07,15.60
2015,07,20,05,08,15.60
2015,07,20,05,09,15.60
2015,07,20,05,10,15.60
2015,07,20,05,11,15.60
2015,07,20,05,12,15.60
2015,07,20,05,13,15.60
2015,07,20,05,14,15.60
2015,07,20,05,15,15.50
2015,07,20,05,16,15.50
2015,07,20,05,17,15.50
2015,07,20,05,18,15.50
2015,07,20,05,19,15.50
2015,07,20,05,20,15.50
2015,07,20,05,21,15.40
2015,07,20,05,22,15.30
2015,07,20,05,23,15.30
2015,07,20,05,24,15.20
2015,07,20,05,25,15.20
2015,07,20,05,26,15.10
2015,07,20,05,27,15.10
2015,07,20,05,28,15.00
2015,07,20,05,29,14.90
2015,07,20,05,30,14.90
2015,07,20,05,31,14.90
2015,07,20,05,32,14.90
2015,07,20,05,33,14.80
2015,07,20,05,34,14.80
2015,07,20,05,35,14.80
2015,07,20,05,36,14.80
2015,07,20,05,37,14.80
2015,07,20,05,38,14.80
2015,07,20,05,39,14.80
2015,07,20,05,40,14.70
2015,07,20,05,41,14.80
2015,07,20,05,42,14.80
2015,07,20,05,43,14.70
2015,07,20,05,44,14.70
2015,07,20,05,45,14.70
2015,07,20,05,46,14.70
2015,07,20,05,47,14.70
2015,07,20,05,48,14.70
2015,07,20,05,49,14.70
2015,07,20,05,50,14.70
2015,07,20,05,51,14.70
2015,07,20,05,52,14.70
2015,07,20,05,53,14.80
2015,07,20,05,54,14.80
2015,07,20,05,55,14.80
2015,07,20,05,56,14.80
2015,07,20,05,57,14.90
2015,07,20,05,58,14.90
2015,07,20,05,59,15.00
2015,07,20,06,00,15.00
2015,07,20,06,01,15.10
2015,07,20,06,02,15.10
2015,07,20,06,03,15.20
2015,07,20,06,04,15.20
2015,07,20,06,05,15.30
2015,07,20,06,06,15.30
2015,07,20,06,07,15.40
2015,07,20,06,08,15.50
2015,07,20,06,09,15.60
2015,07,20,06,10,15.60
2015,07,20,06,11,15.70
2015,07,20,06,12,15.80
2015,07,20,06,13,15.90
2015,07,20,06,14,15.90
2015,07,20,06,15,16.00
2015,07,20,06,16,16.00
2015,07,20,06,17,16.10
2015,07,20,06,18,16.10
2015,07,20,06,19,16.10
2015,07,20,06,20,16.10
2015,07,20,06,21,16.10
2015,07,20,06,22,16.10
2015,07,20,06,23,16.10
2015,07,20,06,24,16.10
2015,07,20,06,25,16.10
2015,07,20,06,26,16.10
2015,07,20,06,27,16.20
2015,07,20,06,28,16.20
2015,07,20,06,29,16.20
2015,07,20,06,30,16.20
2015,07,20,06,31,16.30
2015,07,20,06,32,16.30
2015,07,20,06,33,16.30
2015,07,20,06,34,16.30
2015,07,20,06,35,16.30
2015,07,20,06,36,16.30
2015,07,20,06,37,16.30
2015,07,20,06,38,16.30
2015,07,20,06,39,16.30
2015,07,20,06,40,16.20
2015,07,20,06,41,16.20
2015,07,20,06,42,16.20
2015,07,20,06,43,16.20
2015,07,20,06,44,16.20
2015,07,20,06,45,16.20
2015,07,20,06,46,16.10
2015,07,20,06,47,16.10
2015,07,20,06,48,16.10
2015,07,20,06,49,16.10
2015,07,20,06,50,16.10
2015,07,20,06,51,16.10
2015,07,20,06,52,16.20
2015,07,20,06,53,16.20
2015,07,20,06,54,16.30
2015,07,20,06,55,16.30
2015,07,20,06,56,16.30
2015,07,20,06,57,16.40
2015,07,20,06,58,16.40
2015,07,20,06,59,16.40
2015,07,20,07,00,16.40
2015,07,20,07,01,16.40
2015,07,20,07,02,16.40
2015,07,20,07,03,16.40
2015,07,20,07,04,16.40
2015,07,20,07,05,16.40
2015,07,20,07,06,16.40
2015,07,20,07,07,16.40
2015,07,20,07,08,16.40
2015,07,20,07,09,16.40
2015,07,20,07,10,16.40
2015,07,20,07,11,16.40
2015,07,20,07,12,16.40
2015,07,20,07,13,16.40
2015,07,20,07,14,16.40
2015,07,20,07,15,16.40
2015,07,20,07,16,16.40
2015,07,20,07,17,16.40
2015,07,20,07,18,16.40
2015,07,20,07,19,16.40
2015,07,20,07,20,16.40
2015,07,20,07,21,16.40
2015,07,20,07,22,16.40
2015,07,20,07,23,16.40
2015,07,20,07,24,16.40
2015,07,20,07,25,16.40
2015,07,20,07,26,16.40
2015,07,20,07,27,16.40
2015,07,20,07,28,16.40
2015,07,20,07,29,16.40
2015,07,20,07,30,16.40
2015,07,20,07,31,16.40
2015,07,20,07,32,16.40
2015,07,20,07,33,16.40
2015,07,20,07,34,16.50
2015,07,20,07,35,16.50
2015,07,20,07,36,16.60
2015,07,20,07,37,16.60
2015,07,20,07,38,16.60
2015,07,20,07,39,16.50
2015,07,20,07,40,16.40
2015,07,20,07,41,16.40
2015,07,20,07,42,16.30
2015,07,20,07,43,16.30
2015,07,20,07,44,16.30
2015,07,20,07,45,16.20
2015,07,20,07,46,16.20
2015,07,20,07,47,16.20
2015,07,20,07,48,16.20
2015,07,20,07,49,16.20
2015,07,20,07,50,16.20
2015,07,20,07,51,16.30
2015,07,20,07,52,16.30
2015,07,20,07,53,16.40
2015,07,20,07,54,16.50
2015,07,20,07,55,16.60
2015,07,20,07,56,16.70
2015,07,20,07,57,16.70
2015,07,20,07,58,16.80
2015,07,20,07,59,16.80
2015,07,20,08,00,16.70
2015,07,20,08,01,16.70
2015,07,20,08,02,16.70
2015,07,20,08,03,16.70
2015,07,20,08,04,16.70
2015,07,20,08,05,16.80
2015,07,20,08,06,16.80
2015,07,20,08,07,16.90
2015,07,20,08,08,17.00
2015,07,20,08,09,17.00
2015,07,20,08,10,17.10
2015,07,20,08,11,17.20
2015,07,20,08,12,17.30
2015,07,20,08,13,17.30
2015,07,20,08,14,17.40
2015,07,20,08,15,17.40
2015,07,20,08,16,17.50
2015,07,20,08,17,17.50
2015,07,20,08,18,17.50
2015,07,20,08,19,17.50
2015,07,20,08,20,17.50
2015,07,20,08,21,17.50
2015,07,20,08,22,17.40
2015,07,20,08,23,17.40
2015,07,20,08,24,17.30
2015,07,20,08,25,17.30
2015,07,20,08,26,17.30
2015,07,20,08,27,17.30
2015,07,20,08,28,17.20
2015,07,20,08,29,17.20
2015,07,20,08,30,17.20
2015,07,20,08,31,17.20
2015,07,20,08,32,17.20
2015,07,20,08,33,17.20
2015,07,20,08,34,17.20
2015,07,20,08,35,17.20
2015,07,20,08,36,17.20
2015,07,20,08,37,17.30
2015,07,20,08,38,17.30
2015,07,20,08,39,17.40
2015,07,20,08,40,17.40
2015,07,20,08,41,17.50
2015,07,20,08,42,17.40
2015,07,20,08,43,17.50
2015,07,20,08,44,17.40
2015,07,20,08,45,17.40
2015,07,20,08,46,17.40
2015,07,20,08,47,17.40
2015,07,20,08,48,17.40
2015,07,20,08,49,17.50
2015,07,20,08,50,17.40
2015,07,20,08,51,17.40
2015,07,20,08,52,17.40
2015,07,20,08,53,17.40
2015,07,20,08,54,17.40
2015,07,20,08,55,17.40
2015,07,20,08,56,17.50
2015,07,20,08,57,17.50
2015,07,20,08,58,17.60
2015,07,20,08,59,17.60
2015,07,20,09,00,17.60
2015,07,20,09,01,17.50
2015,07,20,09,02,17.50
2015,07,20,09,03,17.40
2015,07,20,09,04,17.40
2015,07,20,09,05,17.40
2015,07,20,09,06,17.40
2015,07,20,09,07,17.40
2015,07,20,09,08,17.40
2015,07,20,09,09,17.40
2015,07,20,09,10,17.50
2015,07,20,09,11,17.50
2015,07,20,09,12,17.40
2015,07,20,09,13,17.40
2015,07,20,09,14,17.30
2015,07,20,09,15,17.30
2015,07,20,09,16,17.20
2015,07,20,09,17,17.20
2015,07,20,09,18,17.20
2015,07,20,09,19,17.10
2015,07,20,09,20,17.10
2015,07,20,09,21,17.10
2015,07,20,09,22,17.00
2015,07,20,09,23,17.00
2015,07,20,09,24,17.00
2015,07,20,09,25,17.00
2015,07,20,09,26,16.90
2015,07,20,09,27,16.90
2015,07,20,09,28,16.90
2015,07,20,09,29,16.90
2015,07,20,09,30,16.90
2015,07,20,09,31,17.00
2015,07,20,09,32,17.00
2015,07,20,09,33,17.10
2015,07,20,09,34,17.10
2015,07,20,09,35,17.20
2015,07,20,09,36,17.30
2015,07,20,09,37,17.30
2015,07,20,09,38,17.40
2015,07,20,09,39,17.50
2015,07,20,09,40,17.50
2015,07,20,09,41,17.60
2015,07,20,09,42,17.70
2015,07,20,09,43,17.70
2015,07,20,09,44,17.70
2015,07,20,09,45,17.80
2015,07,20,09,46,17.80
2015,07,20,09,47,17.80
2015,07,20,09,48,17.80
2015,07,20,09,49,17.80
2015,07,20,09,50,17.90
2015,07,20,09,51,17.90
2015,07,20,09,52,17.90
2015,07,20,09,53,18.00
2015,07,20,09,54,18.00
2015,07,20,09,55,18.00
2015,07,20,09,56,18.10
2015,07,20,09,57,18.10
2015,07,20,09,58,18.10
2015,07,20,09,59,18.10
2015,07,20,10,00,18.20
2015,07,20,10,01,18.30
2015,07,20,10,02,18.30
2015,07,20,10,03,18.30
2015,07,20,10,04,18.30
2015,07,20,10,05,18.30
2015,07,20,10,06,18.30
2015,07,20,10,07,18.30
2015,07,20,10,08,18.40
2015,07,20,10,09,18.40
2015,07,20,10,10,18.50
2015,07,20,10,11,18.50
2015,07,20,10,12,18.60
2015,07,20,10,13,18.60
2015,07,20,10,14,18.70
2015,07,20,10,15,18.70
2015,07,20,10,16,18.80
2015,07,20,10,17,18.80
2015,07,20,10,18,18.90
2015,07,20,10,19,19.10
2015,07,20,10,20,19.10
2015,07,20,10,21,19.20
2015,07,20,10,22,19.20
2015,07,20,10,23,19.30
2015,07,20,10,24,19.40
2015,07,20,10,25,19.40
2015,07,20,10,26,19.50
2015,07,20,10,27,19.50
2015,07,20,10,28,19.50
2015,07,20,10,29,19.50
2015,07,20,10,30,19.50
2015,07,20,10,31,19.50
2015,07,20,10,32,19.40
2015,07,20,10,33,19.40
2015,07,20,10,34,19.30
2015,07,20,10,35,19.30
2015,07,20,10,36,19.30
2015,07,20,10,37,19.40
2015,07,20,10,38,19.40
2015,07,20,10,39,19.40
2015,07,20,10,40,19.40
2015,07,20,10,41,19.40
2015,07,20,10,42,19.40
2015,07,20,10,43,19.40
2015,07,20,10,44,19.40
2015,07,20,10,45,19.40
2015,07,20,10,46,19.30
2015,07,20,10,47,19.20
2015,07,20,10,48,19.20
2015,07,20,10,49,19.20
2015,07,20,10,50,19.30
2015,07,20,10,51,19.40
2015,07,20,10,52,19.50
2015,07,20,10,53,19.60
2015,07,20,10,54,19.60
2015,07,20,10,55,19.50
2015,07,20,10,56,19.50
2015,07,20,10,57,19.50
2015,07,20,10,58,19.50
2015,07,20,10,59,19.60
2015,07,20,11,00,19.60
2015,07,20,11,01,19.70
2015,07,20,11,02,19.70
2015,07,20,11,03,19.80
2015,07,20,11,04,20.00
2015,07,20,11,05,20.10
2015,07,20,11,06,20.20
2015,07,20,11,07,20.30
2015,07,20,11,08,20.30
2015,07,20,11,09,20.40
2015,07,20,11,10,20.60
2015,07,20,11,11,20.80
2015,07,20,11,12,20.90
2015,07,20,11,13,21.00
2015,07,20,11,14,21.00
2015,07,20,11,15,21.00
2015,07,20,11,16,21.00
2015,07,20,11,17,21.00
2015,07,20,11,18,20.90
2015,07,20,11,19,20.90
2015,07,20,11,20,21.00
2015,07,20,11,21,21.10
2015,07,20,11,22,21.20
2015,07,20,11,23,21.30
2015,07,20,11,24,21.30
2015,07,20,11,25,21.30
2015,07,20,11,26,21.20
2015,07,20,11,27,21.30
2015,07,20,11,28,21.30
2015,07,20,11,29,21.30
2015,07,20,11,30,21.40
2015,07,20,11,31,21.40
2015,07,20,11,32,21.50
2015,07,20,11,33,21.50
2015,07,20,11,34,21.50
2015,07,20,11,35,21.50
2015,07,20,11,36,21.60
2015,07,20,11,37,21.60
2015,07,20,11,38,21.60
2015,07,20,11,39,21.60
2015,07,20,11,40,21.50
2015,07,20,11,41,21.50
2015,07,20,11,42,21.50
2015,07,20,11,43,21.60
2015,07,20,11,44,21.60
2015,07,20,11,45,21.70
2015,07,20,11,46,21.70
2015,07,20,11,47,21.70
2015,07,20,11,48,21.80
2015,07,20,11,49,21.80
2015,07,20,11,50,21.80
2015,07,20,11,51,21.90
2015,07,20,11,52,21.90
2015,07,20,11,53,21.90
2015,07,20,11,54,21.90
2015,07,20,11,55,21.90
2015,07,20,11,56,22.00
2015,07,20,11,57,21.90
2015,07,20,11,58,21.90
2015,07,20,11,59,21.90
2015,07,20,12,00,21.90
2015,07,20,12,01,21.90
2015,07,20,12,02,22.00
2015,07,20,12,03,22.10
2015,07,20,12,04,22.20
2015,07,20,12,05,22.20
2015,07,20,12,06,22.30
2015,07,20,12,07,22.20
2015,07,20,12,08,22.20
2015,07,20,12,09,22.20
2015,07,20,12,10,22.20
2015,07,20,12,11,22.30
2015,07,20,12,12,22.30
2015,07,20,12,13,22.30
2015,07,20,12,14,22.30
2015,07,20,12,15,22.40
2015,07,20,12,16,22.60
2015,07,20,12,17,22.80
2015,07,20,12,18,23.00
2015,07,20,12,19,23.10
2015,07,20,12,20,23.30
2015,07,20,12,21,23.40
2015,07,20,12,22,23.50
2015,07,20,12,23,23.60
2015,07,20,12,24,23.70
2015,07,20,12,25,23.70
2015,07,20,12,26,23.60
2015,07,20,12,27,23.50
2015,07,20,12,28,23.50
2015,07,20,12,29,23.60
2015,07,20,12,30,23.70
2015,07,20,12,31,23.70
2015,07,20,12,32,23.80
2015,07,20,12,33,23.80
2015,07,20,12,34,23.90
2015,07,20,12,35,24.00
2015,07,20,12,36,24.10
2015,07,20,12,37,24.20
2015,07,20,12,38,24.20
2015,07,20,12,39,24.10
2015,07,20,12,40,24.10
2015,07,20,12,41,24.00
2015,07,20,12,42,24.00
2015,07,20,12,43,23.90
2015,07,20,12,44,23.90
2015,07,20,12,45,23.90
2015,07,20,12,46,23.90
2015,07,20,12,47,23.90
2015,07,20,12,48,24.00
2015,07,20,12,49,24.10
2015,07,20,12,50,24.10
2015,07,20,12,51,24.00
2015,07,20,12,52,24.00
2015,07,20,12,53,24.10
2015,07,20,12,54,24.00
2015,07,20,12,55,23.80
2015,07,20,12,56,23.70
2015,07,20,12,57,23.70
2015,07,20,12,58,23.50
2015,07,20,12,59,23.40
2015,07,20,13,00,23.40
2015,07,20,13,01,23.20
2015,07,20,13,02,23.10
2015,07,20,13,03,23.10
2015,07,20,13,04,23.00
2015,07,20,13,05,23.00
2015,07,20,13,06,23.20
2015,07,20,13,07,23.30
2015,07,20,13,08,23.40
2015,07,20,13,09,23.40
2015,07,20,13,10,23.40
2015,07,20,13,11,23.30
2015,07,20,13,12,23.20
2015,07,20,13,13,23.10
2015,07,20,13,14,23.10
2015,07,20,13,15,23.30
2015,07,20,13,16,23.30
2015,07,20,13,17,23.20
2015,07,20,13,18,23.10
2015,07,20,13,19,23.10
2015,07,20,13,20,23.10
2015,07,20,13,21,23.10
2015,07,20,13,22,23.20
2015,07,20,13,23,23.20
2015,07,20,13,24,23.30
2015,07,20,13,25,23.40
2015,07,20,13,26,23.50
2015,07,20,13,27,23.60
2015,07,20,13,28,23.60
2015,07,20,13,29,23.60
2015,07,20,13,30,23.50
2015,07,20,13,31,23.40
2015,07,20,13,32,23.40
2015,07,20,13,33,23.50
2015,07,20,13,34,23.60
2015,07,20,13,35,23.60
2015,07,20,13,36,23.70
2015,07,20,13,37,23.90
2015,07,20,13,38,24.00
2015,07,20,13,39,24.10
2015,07,20,13,40,24.20
2015,07,20,13,41,24.20
2015,07,20,13,42,24.30
2015,07,20,13,43,24.30
2015,07,20,13,44,24.30
2015,07,20,13,45,24.20
2015,07,20,13,46,24.10
2015,07,20,13,47,24.00
2015,07,20,13,48,24.00
2015,07,20,13,49,24.10
2015,07,20,13,50,24.10
2015,07,20,13,51,24.10
2015,07,20,13,52,24.10
2015,07,20,13,53,24.20
2015,07,20,13,54,24.20
2015,07,20,13,55,24.20
2015,07,20,13,56,24.20
2015,07,20,13,57,24.30
2015,07,20,13,58,24.30
2015,07,20,13,59,24.20
2015,07,20,14,00,24.30
2015,07,20,14,01,24.30
2015,07,20,14,02,24.30
2015,07,20,14,03,24.20
2015,07,20,14,04,24.10
2015,07,20,14,05,24.20
2015,07,20,14,06,24.20
2015,07,20,14,07,24.10
2015,07,20,14,08,24.00
2015,07,20,14,09,24.00
2015,07,20,14,10,23.90
2015,07,20,14,11,24.00
2015,07,20,14,12,24.10
2015,07,20,14,13,24.30
2015,07,20,14,14,24.40
2015,07,20,14,15,24.50
2015,07,20,14,16,24.60
2015,07,20,14,17,24.60
2015,07,20,14,18,24.70
2015,07,20,14,19,24.80
2015,07,20,14,20,24.80
2015,07,20,14,21,24.60
2015,07,20,14,22,24.50
2015,07,20,14,23,24.50
2015,07,20,14,24,24.60
2015,07,20,14,25,24.70
2015,07,20,14,26,24.90
2015,07,20,14,27,25.10
2015,07,20,14,28,25.30
2015,07,20,14,29,25.40
2015,07,20,14,30,25.50
2015,07,20,14,31,25.50
2015,07,20,14,32,25.40
2015,07,20,14,33,25.30
2015,07,20,14,34,25.30
2015,07,20,14,35,25.20
2015,07,20,14,36,25.20
2015,07,20,14,37,25.20
2015,07,20,14,38,25.10
2015,07,20,14,39,25.20
2015,07,20,14,40,25.30
2015,07,20,14,41,25.30
2015,07,20,14,42,25.30
2015,07,20,14,43,25.30
2015,07,20,14,44,25.40
2015,07,20,14,45,25.40
2015,07,20,14,46,25.40
2015,07,20,14,47,25.40
2015,07,20,14,48,25.30
2015,07,20,14,49,25.40
2015,07,20,14,50,25.50
2015,07,20,14,51,25.60
2015,07,20,14,52,25.60
2015,07,20,14,53,25.60
2015,07,20,14,54,25.60
2015,07,20,14,55,25.60
2015,07,20,14,56,25.60
2015,07,20,14,57,25.60
2015,07,20,14,58,25.50
2015,07,20,14,59,25.50
2015,07,20,15,00,25.40
2015,07,20,15,01,25.40
2015,07,20,15,02,25.40
2015,07,20,15,03,25.40
2015,07,20,15,04,25.30
2015,07,20,15,05,25.20
2015,07,20,15,06,25.20
2015,07,20,15,07,25.30
2015,07,20,15,08,25.30
2015,07,20,15,09,25.20
2015,07,20,15,10,25.20
2015,07,20,15,11,25.20
2015,07,20,15,12,25.20
2015,07,20,15,13,25.30
2015,07,20,15,14,25.30
2015,07,20,15,15,25.10
2015,07,20,15,16,25.10
2015,07,20,15,17,25.20
2015,07,20,15,18,25.30
2015,07,20,15,19,25.30
2015,07,20,15,20,25.30
2015,07,20,15,21,25.30
2015,07,20,15,22,25.40
2015,07,20,15,23,25.40
2015,07,20,15,24,25.40
2015,07,20,15,25,25.30
2015,07,20,15,26,25.30
2015,07,20,15,27,25.30
2015,07,20,15,28,25.30
2015,07,20,15,29,25.30
2015,07,20,15,30,25.20
2015,07,20,15,31,25.20
2015,07,20,15,32,25.20
2015,07,20,15,33,25.30
2015,07,20,15,34,25.40
2015,07,20,15,35,25.50
2015,07,20,15,36,25.50
2015,07,20,15,37,25.60
2015,07,20,15,38,25.60
2015,07,20,15,39,25.60
2015,07,20,15,40,25.60
2015,07,20,15,41,25.50
2015,07,20,15,42,25.40
2015,07,20,15,43,25.40
2015,07,20,15,44,25.40
2015,07,20,15,45,25.40
2015,07,20,15,46,25.20
2015,07,20,15,47,25.00
2015,07,20,15,48,24.90
2015,07,20,15,49,24.80
2015,07,20,15,50,24.70
2015,07,20,15,51,24.60
2015,07,20,15,52,24.60
2015,07,20,15,53,24.60
2015,07,20,15,54,24.70
2015,07,20,15,55,24.80
2015,07,20,15,56,24.80
2015,07,20,15,57,24.80
2015,07,20,15,58,24.80
2015,07,20,15,59,24.70
2015,07,20,16,00,24.80
2015,07,20,16,01,24.70
2015,07,20,16,02,24.60
2015,07,20,16,03,24.50
2015,07,20,16,04,24.50
2015,07,20,16,05,24.40
2015,07,20,16,06,24.30
2015,07,20,16,07,24.20
2015,07,20,16,08,24.10
2015,07,20,16,09,23.90
2015,07,20,16,10,23.80
2015,07,20,16,11,23.90
2015,07,20,16,12,23.90
2015,07,20,16,13,24.00
2015,07,20,16,14,23.90
2015,07,20,16,15,23.80
2015,07,20,16,16,23.90
2015,07,20,16,17,23.90
2015,07,20,16,18,23.90
2015,07,20,16,19,23.90
2015,07,20,16,20,23.80
2015,07,20,16,21,23.60
2015,07,20,16,22,23.60
2015,07,20,16,23,23.50
2015,07,20,16,24,23.50
2015,07,20,16,25,23.50
2015,07,20,16,26,23.60
2015,07,20,16,27,23.70
2015,07,20,16,28,23.70
2015,07,20,16,29,23.80
2015,07,20,16,30,23.70
2015,07,20,16,31,23.70
2015,07,20,16,32,23.50
2015,07,20,16,33,23.40
2015,07,20,16,34,23.30
2015,07,20,16,35,23.30
2015,07,20,16,36,23.40
2015,07,20,16,37,23.40
2015,07,20,16,38,23.50
2015,07,20,16,39,23.60
2015,07,20,16,40,23.60
2015,07,20,16,41,23.60
2015,07,20,16,42,23.50
2015,07,20,16,43,23.40
2015,07,20,16,44,23.40
2015,07,20,16,45,23.30
2015,07,20,16,46,23.30
2015,07,20,16,47,23.30
2015,07,20,16,48,23.40
2015,07,20,16,49,23.30
2015,07,20,16,50,23.20
2015,07,20,16,51,23.10
2015,07,20,16,52,23.10
2015,07,20,16,53,23.10
2015,07,20,16,54,23.20
2015,07,20,16,55,23.20
2015,07,20,16,56,23.40
2015,07,20,16,57,23.40
2015,07,20,16,58,23.50
2015,07,20,16,59,23.50
2015,07,20,17,00,23.40
2015,07,20,17,01,23.50
2015,07,20,17,02,23.50
2015,07,20,17,03,23.50
2015,07,20,17,04,23.60
2015,07,20,17,05,23.60
2015,07,20,17,06,23.60
2015,07,20,17,07,23.50
2015,07,20,17,08,23.60
2015,07,20,17,09,23.50
2015,07,20,17,10,23.50
2015,07,20,17,11,23.40
2015,07,20,17,12,23.40
2015,07,20,17,13,23.40
2015,07,20,17,14,23.40
2015,07,20,17,15,23.50
2015,07,20,17,16,23.60
2015,07,20,17,17,23.60
2015,07,20,17,18,23.50
2015,07,20,17,19,23.50